TimeCST,TemperatureF,Dew PointF,Humidity,Sea Level PressureIn,VisibilityMPH,Wind Direction,Wind SpeedMPH,Gust SpeedMPH,PrecipitationIn,Events,Conditions,WindDirDegrees,DateUTC
12:51 AM,48.9,28.9,46,29.93,10.0,North,10.4,-,N/A,,Clear,360,2012-12-24 06:51:00
1:51 AM,45.0,28.0,52,29.93,10.0,NNW,5.8,-,N/A,,Clear,340,2012-12-24 07:51:00
2:51 AM,43.0,28.9,58,29.95,10.0,NW,4.6,-,N/A,,Clear,320,2012-12-24 08:51:00
3:51 AM,41.0,28.9,62,29.95,10.0,NNW,10.4,-,N/A,,Clear,340,2012-12-24 09:51:00
4:51 AM,39.0,28.9,67,29.95,10.0,NNW,6.9,-,N/A,,Clear,340,2012-12-24 10:51:00
5:51 AM,39.0,28.0,65,29.97,10.0,NNW,10.4,-,N/A,,Clear,340,2012-12-24 11:51:00
6:51 AM,39.0,27.0,62,30.01,10.0,NNW,10.4,-,N/A,,Clear,340,2012-12-24 12:51:00
7:51 AM,37.0,26.1,65,30.02,8.0,NNW,8.1,-,N/A,,Clear,330,2012-12-24 13:51:00
8:51 AM,39.9,27.0,60,30.03,7.0,NNW,10.4,-,N/A,,Clear,340,2012-12-24 14:51:00
9:51 AM,44.1,27.0,51,30.04,9.0,NW,8.1,-,N/A,,Clear,320,2012-12-24 15:51:00
10:51 AM,48.0,25.0,41,30.03,6.0,North,9.2,-,N/A,,Haze,10,2012-12-24 16:51:00
11:51 AM,50.0,25.0,38,30.01,9.0,Variable,4.6,-,N/A,,Clear,0,2012-12-24 17:51:00
12:51 PM,54.0,25.0,33,29.95,6.0,North,4.6,-,N/A,,Haze,360,2012-12-24 18:51:00
1:51 PM,55.0,25.0,31,29.91,6.0,Calm,Calm,-,N/A,,Haze,0,2012-12-24 19:51:00
2:51 PM,57.9,23.0,26,29.87,6.0,Calm,Calm,-,N/A,,Haze,0,2012-12-24 20:51:00
3:51 PM,61.0,23.0,23,29.85,7.0,NNE,3.5,-,N/A,,Clear,30,2012-12-24 21:51:00
4:51 PM,57.9,23.0,26,29.83,7.0,East,3.5,-,N/A,,Clear,80,2012-12-24 22:51:00
5:51 PM,52.0,25.0,35,29.82,8.0,ENE,4.6,-,N/A,,Clear,70,2012-12-24 23:51:00
6:51 PM,48.0,26.1,42,29.83,8.0,ENE,4.6,-,N/A,,Clear,60,2012-12-25 00:51:00
7:51 PM,44.6,26.6,49,29.83,8.0,NNE,5.8,-,N/A,,Clear,20,2012-12-25 01:51:00
8:51 PM,43.0,28.0,56,29.82,8.0,North,6.9,-,N/A,,Clear,10,2012-12-25 02:51:00
9:51 PM,46.4,28.4,50,29.82,8.0,NNE,4.6,-,N/A,,Clear,20,2012-12-25 03:51:00
10:51 PM,48.0,28.9,48,29.78,7.0,ENE,8.1,-,N/A,,Mostly Cloudy,70,2012-12-25 04:51:00
11:41 PM,50.0,30.2,47,29.79,7.0,North,5.8,-,N/A,,Overcast,10,2012-12-25 05:41:00
11:51 PM,50.0,30.0,46,29.78,7.0,NNE,5.8,-,N/A,,Overcast,30,2012-12-25 05:51:00